When you browse on this site, cookies collect data to enhance your experience and personalize the content and advertising you see.
Visit our Privacy Policy to learn more. By continuing to use the site, you agree to this use of cookies and data.
  • In Hungary
  • List of Countries
  • For 7 days
  • Water Temperature
  • Weather Map
  • News
  • Weather Widgets
  • user-avatar
    Login

    Hourly Weather Bolshie Kibya-Kozi

    Today, 19 October, Saturday

    Time Temperature Precipitation Wind Pressure Humidity
    00:00 +2°C° 0 mm 5 mps 753 mmHg 89%
    01:00 +2°C° 0 mm 5 mps 753 mmHg 88%
    02:00 +1°C° 0 mm 5 mps 754 mmHg 87%
    03:00 +1°C° 0 mm 5 mps 755 mmHg 86%
    04:00 +1°C° 0 mm 5 mps 755 mmHg 86%
    05:00 0°C° 0 mm 5 mps 756 mmHg 86%
    06:00 0°C° 0 mm 5 mps 756 mmHg 86%
    07:00 0°C° 0 mm 5 mps 757 mmHg 85%
    08:00 0°C° 0 mm 5 mps 757 mmHg 84%
    09:00 0°C° 0 mm 5 mps 758 mmHg 83%
    10:00 0°C° 0 mm 5 mps 758 mmHg 81%
    11:00 +1°C° 0 mm 4 mps 758 mmHg 79%
    12:00 +1°C° 0 mm 4 mps 759 mmHg 77%
    13:00 +1°C° 0 mm 4 mps 759 mmHg 77%
    14:00 +1°C° 0 mm 4 mps 759 mmHg 76%
    15:00 +1°C° 0 mm 4 mps 759 mmHg 75%
    16:00 +1°C° 0 mm 3 mps 760 mmHg 78%
    17:00 +2°C° 0 mm 2 mps 760 mmHg 81%
    18:00 +1°C° 0 mm 2 mps 760 mmHg 84%
    19:00 -1°C° 0 mm 2 mps 760 mmHg 84%
    20:00 -1°C° 0 mm 2 mps 761 mmHg 84%
    21:00 -1°C° 0 mm 2 mps 761 mmHg 84%
    22:00 -2°C° 0 mm 2 mps 761 mmHg 84%
    23:00 -2°C° 0 mm 2 mps 761 mmHg 83%

    Tomorrow, 20 October, Sunday

    Time Temperature Precipitation Wind Pressure Humidity
    00:00 -2°C° 0 mm 2 mps 761 mmHg 83%
    01:00 -2°C° 0 mm 2 mps 761 mmHg 84%
    02:00 0°C° 0 mm 1 mps 761 mmHg 84%
    03:00 0°C° 0 mm 1 mps 761 mmHg 85%
    04:00 0°C° 0 mm 1 mps 761 mmHg 86%
    05:00 0°C° 0 mm 1 mps 761 mmHg 87%
    06:00 0°C° 0 mm 1 mps 761 mmHg 88%
    07:00 -1°C° 0 mm 2 mps 761 mmHg 85%
    08:00 +1°C° 0 mm 2 mps 761 mmHg 82%
    09:00 +2°C° 0 mm 2 mps 761 mmHg 80%
    10:00 +2°C° 0 mm 3 mps 761 mmHg 78%
    11:00 +3°C° 0 mm 3 mps 761 mmHg 76%
    12:00 +4°C° 0 mm 3 mps 761 mmHg 74%
    13:00 +4°C° 0 mm 4 mps 760 mmHg 76%
    14:00 +4°C° 0 mm 4 mps 760 mmHg 79%
    15:00 +4°C° 0 mm 4 mps 760 mmHg 81%
    16:00 +4°C° 0 mm 4 mps 760 mmHg 83%
    17:00 +4°C° 0 mm 4 mps 760 mmHg 85%
    18:00 +4°C° 0 mm 4 mps 760 mmHg 87%
    19:00 +4°C° 0 mm 4 mps 759 mmHg 87%
    20:00 +3°C° 0 mm 5 mps 759 mmHg 88%
    21:00 +5°C° 0 mm 5 mps 759 mmHg 88%
    22:00 +5°C° 0.1 mm 5 mps 759 mmHg 89%
    23:00 +4°C° 0.1 mm 6 mps 758 mmHg 90%

    Day after tomorrow, 21 October, Monday

    Time Temperature Precipitation Wind Pressure Humidity
    00:00 +4°C° 0.1 mm 6 mps 758 mmHg 91%
    01:00 +5°C° 0.3 mm 6 mps 758 mmHg 91%
    02:00 +5°C° 0.3 mm 6 mps 758 mmHg 92%
    03:00 +5°C° 0.3 mm 6 mps 758 mmHg 92%
    04:00 +6°C° 0.6 mm 5 mps 758 mmHg 93%
    05:00 +6°C° 0.6 mm 5 mps 758 mmHg 94%
    06:00 +6°C° 0.6 mm 5 mps 758 mmHg 95%
    07:00 +7°C° 0.1 mm 5 mps 758 mmHg 95%
    08:00 +7°C° 0.1 mm 5 mps 758 mmHg 94%
    09:00 +7°C° 0.1 mm 4 mps 758 mmHg 93%
    10:00 +8°C° 0 mm 5 mps 757 mmHg 91%
    11:00 +9°C° 0 mm 5 mps 757 mmHg 88%
    12:00 +9°C° 0 mm 6 mps 757 mmHg 86%
    13:00 +10°C° 0 mm 6 mps 756 mmHg 85%
    14:00 +10°C° 0 mm 6 mps 756 mmHg 84%
    15:00 +10°C° 0 mm 6 mps 756 mmHg 83%
    16:00 +10°C° 0 mm 6 mps 755 mmHg 84%
    17:00 +10°C° 0 mm 7 mps 755 mmHg 85%
    18:00 +9°C° 0 mm 7 mps 755 mmHg 86%
    19:00 +9°C° 0 mm 7 mps 754 mmHg 87%
    20:00 +9°C° 0 mm 8 mps 753 mmHg 87%
    21:00 +9°C° 0 mm 8 mps 753 mmHg 88%
    22:00 +9°C° 0 mm 8 mps 752 mmHg 88%
    23:00 +9°C° 0 mm 8 mps 752 mmHg 88%

    22 October, Tuesday

    Time Temperature Precipitation Wind Pressure Humidity
    00:00 +10°C° 0 mm 8 mps 751 mmHg 87%
    01:00 +10°C° 0.1 mm 8 mps 751 mmHg 88%
    02:00 +10°C° 0.1 mm 8 mps 750 mmHg 88%
    03:00 +10°C° 0.1 mm 7 mps 750 mmHg 89%
    04:00 +10°C° 1.3 mm 7 mps 750 mmHg 91%
    05:00 +10°C° 1.3 mm 6 mps 750 mmHg 93%
    06:00 +10°C° 1.3 mm 5 mps 750 mmHg 95%
    07:00 +10°C° 0.2 mm 5 mps 750 mmHg 95%
    08:00 +11°C° 0.2 mm 4 mps 750 mmHg 94%
    09:00 +11°C° 0.2 mm 4 mps 750 mmHg 93%
    10:00 +12°C° 0.1 mm 4 mps 750 mmHg 87%
    11:00 +12°C° 0.1 mm 4 mps 751 mmHg 81%
    12:00 +13°C° 0.1 mm 4 mps 751 mmHg 74%
    13:00 +12°C° 0 mm 4 mps 751 mmHg 74%
    14:00 +12°C° 0 mm 4 mps 751 mmHg 74%
    15:00 +11°C° 0 mm 4 mps 751 mmHg 74%
    16:00 +10°C° 0 mm 3 mps 751 mmHg 76%
    17:00 +10°C° 0 mm 3 mps 751 mmHg 77%
    18:00 +9°C° 0 mm 3 mps 751 mmHg 78%
    19:00 +9°C° 0 mm 3 mps 751 mmHg 80%
    20:00 +8°C° 0 mm 2 mps 751 mmHg 82%
    21:00 +7°C° 0 mm 2 mps 751 mmHg 83%
    22:00 +7°C° 0 mm 2 mps 751 mmHg 81%
    23:00 +7°C° 0 mm 2 mps 751 mmHg 79%

    23 October, Wednesday

    Time Temperature Precipitation Wind Pressure Humidity
    00:00 +8°C° 0 mm 1 mps 751 mmHg 77%
    01:00 +7°C° 0 mm 2 mps 751 mmHg 79%
    02:00 +7°C° 0 mm 3 mps 752 mmHg 82%
    03:00 +6°C° 0 mm 4 mps 752 mmHg 84%
    04:00 +5°C° 0 mm 4 mps 752 mmHg 84%
    05:00 +4°C° 0 mm 3 mps 752 mmHg 84%
    06:00 +3°C° 0 mm 3 mps 753 mmHg 84%
    07:00 +3°C° 0 mm 3 mps 753 mmHg 83%
    08:00 +4°C° 0 mm 4 mps 753 mmHg 83%
    09:00 +4°C° 0 mm 4 mps 754 mmHg 83%
    10:00 +5°C° 0 mm 3 mps 754 mmHg 78%
    11:00 +7°C° 0 mm 3 mps 754 mmHg 74%
    12:00 +7°C° 0 mm 3 mps 754 mmHg 69%
    13:00 +7°C° 0 mm 2 mps 754 mmHg 69%
    14:00 +7°C° 0 mm 2 mps 754 mmHg 69%
    15:00 +7°C° 0 mm 2 mps 754 mmHg 69%
    16:00 +6°C° 0 mm 2 mps 754 mmHg 72%
    17:00 +5°C° 0 mm 2 mps 754 mmHg 75%
    18:00 +5°C° 0 mm 2 mps 755 mmHg 79%
    19:00 +4°C° 0 mm 2 mps 754 mmHg 81%
    20:00 +3°C° 0 mm 3 mps 754 mmHg 82%
    21:00 +3°C° 0 mm 3 mps 754 mmHg 84%
    22:00 +3°C° 0 mm 3 mps 754 mmHg 84%
    23:00 +3°C° 0 mm 4 mps 753 mmHg 85%

    24 October, Thursday

    Time Temperature Precipitation Wind Pressure Humidity
    00:00 +3°C° 0 mm 4 mps 753 mmHg 85%
    01:00 +3°C° 0 mm 4 mps 753 mmHg 87%
    02:00 +3°C° 0 mm 4 mps 753 mmHg 89%
    03:00 +3°C° 0 mm 4 mps 752 mmHg 91%
    04:00 +4°C° 0 mm 4 mps 752 mmHg 90%
    05:00 +4°C° 0 mm 4 mps 752 mmHg 90%
    06:00 +4°C° 0 mm 3 mps 752 mmHg 89%
    07:00 +5°C° 0 mm 4 mps 752 mmHg 90%
    08:00 +5°C° 0 mm 4 mps 752 mmHg 90%
    09:00 +6°C° 0 mm 4 mps 753 mmHg 90%
    10:00 +7°C° 0 mm 3 mps 753 mmHg 89%
    11:00 +8°C° 0 mm 3 mps 753 mmHg 88%
    12:00 +8°C° 0 mm 3 mps 754 mmHg 86%
    13:00 +8°C° 0 mm 3 mps 754 mmHg 86%
    14:00 +8°C° 0 mm 2 mps 754 mmHg 86%
    15:00 +7°C° 0 mm 2 mps 754 mmHg 86%
    16:00 +7°C° 0 mm 2 mps 755 mmHg 86%
    17:00 +8°C° 0 mm 1 mps 755 mmHg 86%
    18:00 +8°C° 0 mm 1 mps 755 mmHg 86%
    19:00 +8°C° 0 mm 1 mps 756 mmHg 86%
    20:00 +8°C° 0 mm 1 mps 756 mmHg 86%
    21:00 +8°C° 0 mm 1 mps 756 mmHg 86%
    22:00 +8°C° 0 mm 1 mps 756 mmHg 87%
    23:00 +8°C° 0 mm 1 mps 756 mmHg 87%
    Show more